Location: Unspecified
(0.0000°N, 0.0000°E)
Time: 05:34:48
(UTC+00:00)

RS-6 - Pass Details

Date: 28 September 2022
Orbit: 1636 x 1664 km, 83.0° (Epoch: 27 November)

Event Time Altitude Azimuth Distance (km) Brightness Sun altitude
Rises 04:03:14 0° 170° (S) 4,900 ? -26.9°
Reaches altitude 10° 04:06:24 10° 164° (SSE) 3,907 ? -26.1°
Maximum altitude 04:15:26 48° 92° (E) 2,064 ? -23.8°
Drops below altitude 10° 04:24:21 10° 21° (NNE) 3,876 ? -21.6°
Sets 04:27:27 0° 16° (NNE) 4,858 ? -20.8°
